"Time","Temp","Dewpoint","Humidity","Pressure","Direction","Speed","Gust","Precip","PrecipRate"
"00:04:58","57.3","56.5","97","29.84","176","0","0","0.00","0.00"
"00:09:57","57.3","56.5","97","29.84","176","0","0","0.00","0.00"
"00:14:59","57.4","56.6","97","29.84","176","0","0","0.00","0.00"
"00:19:57","57.3","56.5","97","29.84","176","0","0","0.00","0.00"
"00:24:58","57.3","56.5","97","29.84","176","0","0","0.00","0.00"
"00:29:59","57.1","56.3","97","29.84","176","0","0","0.00","0.00"
"00:34:57","57","56.2","97.1","29.83","176","0","0","0.00","0.00"
"00:39:59","57.1","56.5","98","29.83","176","0","0","0.00","0.00"
"00:44:56","57.1","56.3","97.3","29.84","176","0","0","0.00","0.00"
"00:49:58","56.9","56.1","97","29.84","176","0","0","0.00","0.00"
"00:54:59","56.5","55.7","97","29.84","176","0","0","0.00","0.00"
"00:59:57","56.3","55.5","97","29.84","176","0","0","0.00","0.00"
"01:04:59","56.2","55.4","97","29.83","176","0","0","0.00","0.00"
"01:09:57","56.2","55.4","97","29.83","176","0","0","0.00","0.00"
"01:14:59","56.2","55.4","97.3","29.83","176","0","0","0.00","0.00"
"01:19:57","56.3","55.5","97.1","29.83","176","0","0","0.00","0.00"
"01:24:58","56.2","55.4","97","29.83","176","0","0","0.00","0.00"
"01:29:59","55.9","55.1","97","29.83","176","0","0","0.00","0.00"
"01:34:56","55.7","54.9","97","29.83","176","0","0","0.00","0.00"
"01:39:58","55.5","54.7","97","29.83","176","0","0","0.00","0.00"
"01:44:56","55.5","54.7","97","29.83","176","0","0","0.00","0.00"
"01:49:57","55.4","54.6","97","29.82","176","0","0","0.00","0.00"
"01:54:58","55.3","54.6","97.2","29.82","176","0","0","0.00","0.00"
"01:59:56","55.2","54.5","97.3","29.83","176","0","0","0.00","0.00"
"02:04:58","54.9","54.1","97","29.83","176","0","0","0.00","0.00"
"02:09:56","54.7","53.9","97","29.83","176","0","0","0.00","0.00"
"02:14:58","54.6","53.8","97","29.83","176","0","0","0.00","0.00"
"02:19:59","54.6","54","97.8","29.83","176","0","0","0.00","0.00"
"02:24:57","54.8","54.2","98","29.83","176","0","0","0.00","0.00"
"02:29:57","54.8","54.2","98","29.83","176","0","0","0.00","0.00"
"02:34:59","54.7","54.1","98","29.83","176","0","0","0.00","0.00"
"02:39:56","54.7","54.1","98","29.83","176","0","0","0.00","0.00"
"02:44:58","54.7","54.1","98","29.83","176","0","0","0.00","0.00"
"02:49:59","54.7","54.1","98","29.83","176","0","0","0.00","0.00"
"02:54:56","54.6","53.9","97.5","29.83","176","0","0","0.00","0.00"
"02:59:57","54.6","54","98","29.83","176","0","0","0.00","0.00"
"03:04:58","54.6","54","97.8","29.83","176","0","0","0.00","0.00"
"03:09:56","54.6","54","98","29.83","176","0","0","0.00","0.00"
"03:14:58","54.8","54.2","98","29.83","176","0","0","0.00","0.00"
"03:19:59","54.9","54.3","98","29.82","176","0","0","0.00","0.00"
"03:24:56","55","54.4","98","29.82","176","0","0","0.00","0.00"
"03:29:57","54.9","54.3","98","29.82","176","0","0","0.00","0.00"
"03:34:59","54.8","54.2","98","29.82","176","0","0","0.00","0.00"
"03:39:57","54.7","54.1","98","29.82","176","0","0","0.00","0.00"
"03:44:59","54.5","53.9","97.8","29.82","176","0","0","0.00","0.00"
"03:49:59","54.5","53.9","98","29.82","176","0","0","0.00","0.00"
"03:54:56","54.5","53.9","98","29.82","176","0","0","0.00","0.00"
"03:59:58","54.5","53.9","98","29.82","176","0","0","0.00","0.00"
"04:04:57","54.4","53.8","98","29.82","176","0","0","0.00","0.00"
"04:09:59","54.6","54","98","29.82","176","0","0","0.00","0.00"
"04:14:58","54.9","54.3","98","29.83","176","0","0","0.00","0.00"
"04:19:56","54.9","54.3","98","29.83","176","0","0","0.00","0.00"
"04:24:57","54.6","54","98","29.83","176","0","0","0.00","0.00"
"04:29:59","54.5","53.9","98","29.83","176","0","0","0.00","0.00"
"04:34:56","54.4","53.8","98","29.83","176","0","0","0.00","0.00"
"04:39:58","54.3","53.7","98","29.83","176","0","0","0.00","0.00"
"04:44:59","54.2","53.6","98","29.83","176","0","0","0.00","0.00"
"04:49:57","54.1","53.5","98","29.83","176","0","0","0.00","0.00"
"04:54:58","54.1","53.5","98","29.83","176","0","0","0.00","0.00"
"04:59:59","54.1","53.5","98","29.83","176","0","0","0.00","0.00"
"05:04:58","54.1","53.5","98","29.83","176","0","0","0.00","0.00"
"05:09:56","54.1","53.5","98","29.83","176","0","0","0.00","0.00"
"05:14:57","54","53.4","98","29.83","176","0","0","0.00","0.00"
"05:19:56","54","53.4","98","29.83","176","0","0","0.00","0.00"
"05:24:58","54.2","53.6","98","29.83","176","0","0","0.00","0.00"
"05:29:59","54.4","53.8","98","29.83","176","0","0","0.00","0.00"
"05:34:57","54.8","54.2","98.2","29.82","176","0","0","0.00","0.00"
"05:39:59","55.1","54.8","99","29.82","176","0","0","0.00","0.00"
"05:44:56","55.4","55.1","98.8","29.82","176","0","0","0.00","0.00"
"05:49:58","55.7","55.4","99","29.82","176","0","0","0.00","0.00"
"05:54:59","55.9","55.3","98.1","29.82","171","1.1","3.6","0.00","0.00"
"05:59:56","56.1","55.7","98.6","29.82","171","0","1.2","0.00","0.00"
"06:04:59","56.3","56","99","29.82","171","0.3","2.4","0.00","0.00"
"06:09:58","56.3","55.8","98.5","29.82","171","0","0","0.00","0.00"
"06:14:56","56.1","55.5","98","29.84","171","0","0","0.00","0.00"
"06:19:58","56.1","55.5","98","29.84","171","0","0","0.00","0.00"
"06:24:56","56.1","55.5","98","29.84","171","0","0","0.00","0.00"
"06:29:57","56.1","55.5","98","29.84","171","0","0","0.00","0.00"
"06:34:59","56","55.4","98","29.84","171","0","0","0.00","0.00"
"06:39:57","56","55.4","98","29.84","171","0","0","0.00","0.00"
"06:44:58","56.1","55.5","98","29.84","171","0","0","0.00","0.00"
"06:49:59","56.1","55.5","98","29.84","171","0","0","0.00","0.00"
"06:54:56","56","55.4","98","29.84","171","0","0","0.00","0.00"
"06:59:57","56.2","55.7","98.2","29.85","202","0.1","1.2","0.00","0.00"
"07:04:59","56.4","56","98.5","29.85","201","0.2","1.2","0.00","0.00"
"07:09:57","56.8","56.4","98.7","29.85","201","0.6","2.4","0.00","0.00"
"07:14:58","57.2","56.9","99","29.86","188","0.7","2.4","0.00","0.00"
"07:19:59","57.5","57.2","99","29.86","130","0","1.2","0.01","0.01"
"07:24:56","57.7","57.4","99","29.86","125","0.3","1.2","0.01","0.01"
"07:29:57","58","57.7","99","29.86","125","0.1","1.2","0.02","0.01"
"07:34:57","58.3","58","99","29.86","125","0.9","2.4","0.02","0.02"
"07:39:59","58.5","58.2","99","29.86","108","0.1","2.3","0.02","0.02"
"07:44:56","58.8","58.5","99","29.87","300","0","1.2","0.03","0.03"
"07:49:57","59.2","58.9","99","29.87","300","0","1.2","0.03","0.03"
"07:54:58","59.6","59.3","99","29.87","300","0","1.2","0.03","0.03"
"07:59:59","60","59.7","99","29.87","300","0","0","0.03","0.03"
"08:04:57","60.4","60.1","99","29.87","294","0","0","0.03","0.03"
"08:09:59","60.8","60.5","99","29.87","294","0.3","1.2","0.03","0.03"
"08:14:57","61.2","60.9","99","29.87","304","0","1.2","0.03","0.03"
"08:19:58","61.7","61.4","99","29.87","304","0.5","2.4","0.03","0.03"
"08:24:59","62.5","62.2","99","29.87","305","0.5","3.6","0.03","0.02"
"08:29:56","63.2","62.9","99","29.87","317","0.9","3.5","0.03","0.02"
"08:34:57","63.8","63.5","99","29.87","315","0.4","2.4","0.03","0.01"
"08:39:59","64.6","64.3","99","29.87","315","0.3","2.4","0.03","0.01"
"08:44:56","65.2","64.9","99","29.87","344","0","4.8","0.03","0.01"
"08:49:58","65.4","65.1","99","29.87","346","1.3","4.6","0.03","0.00"
"08:54:58","65.5","65.2","99","29.87","343","0.4","2.4","0.03","0.00"
"08:59:59","65.7","65.4","99","29.87","335","0.8","2.4","0.03","0.00"
"09:04:58","65.9","65.6","98.9","29.87","308","0.7","2.4","0.03","0.00"
"09:09:56","66","65.2","97.1","29.87","266","1.3","4.8","0.03","0.00"
"09:14:58","66.6","65.4","96","29.87","243","1.4","4.8","0.03","0.00"
"09:19:56","67.4","65.9","95.2","29.87","257","1.5","4.8","0.03","0.00"
"09:24:57","67.9","65.8","92.9","29.87","234","1.7","3.6","0.03","0.00"
"09:29:58","68.3","65.4","90.5","29.87","260","1.9","4.8","0.03","0.00"
"09:34:59","69.1","65.9","89.5","29.87","266","1.7","6","0.03","0.00"
"09:39:56","69.8","65.5","86.1","29.87","295","2.2","6","0.03","0.00"
"09:44:57","70.4","65.9","85.6","29.87","271","2.2","4.8","0.03","0.00"
"09:49:59","71","66.5","85.5","29.87","295","2.3","6","0.03","0.00"
"09:54:56","71.5","66.4","84.1","29.87","259","2.5","6","0.03","0.00"
"09:59:56","71.9","66.7","83.6","29.87","244","2.7","6","0.03","0.00"
"10:04:59","72.4","66.8","82.7","29.87","260","2.8","6","0.03","0.00"
"10:09:57","72.8","66.8","81.6","29.87","260","2.2","7.2","0.03","0.00"
"10:14:58","73.2","67","81","29.88","237","2.4","6.9","0.03","0.00"
"10:19:59","73.7","67.7","81.5","29.88","247","1.9","6","0.03","0.00"
"10:24:56","74.2","67.2","78.8","29.88","292","1.7","5.8","0.03","0.00"
"10:29:57","74.6","67.5","78.6","29.88","218","3.2","7.2","0.03","0.00"
"10:34:58","74.7","67.7","78.7","29.87","254","2.3","6","0.03","0.00"
"10:39:59","74.8","66.8","76.3","29.87","331","3.4","10.8","0.03","0.00"
"10:44:56","75.1","66.8","75.7","29.87","294","2.9","12","0.03","0.00"
"10:49:57","75.3","66.8","75","29.87","254","3","11.5","0.03","0.00"
"10:54:58","75.4","65.6","71.6","29.87","331","5","12","0.03","0.00"
"10:59:58","75.4","66.5","74.1","29.87","308","4.4","8.4","0.03","0.00"
"11:04:57","75.9","66.6","73.1","29.87","289","2.4","8.4","0.03","0.00"
"11:09:59","76","66.4","72.3","29.87","312","2.5","10.8","0.03","0.00"
"11:14:56","75.7","65.5","70.7","29.87","320","4.8","12","0.03","0.00"
"11:19:57","76.3","65.3","68.8","29.87","328","5.1","13.2","0.03","0.00"
"11:24:59","76.6","65.4","68.3","29.87","350","6","13.2","0.03","0.00"
"11:29:59","76.3","65.1","68.4","29.87","319","5.5","15","0.03","0.00"
"11:34:56","76.9","66.2","69.6","29.87","313","2.5","6","0.03","0.00"
"11:39:58","77.6","65.5","66.4","29.87","338","3.9","14.4","0.03","0.00"
"11:44:59","77.5","64.9","65.3","29.87","328","6.2","15","0.03","0.00"
"11:49:56","77.6","65.9","67.5","29.86","323","3.4","11.5","0.03","0.00"
"11:54:57","77.6","65.8","67.2","29.86","250","4.6","13.2","0.03","0.00"
"11:59:58","76.9","64.8","66.2","29.86","325","2.4","8.4","0.03","0.00"
"12:04:57","76.9","65.1","66.9","29.85","330","3.7","7.2","0.03","0.00"
"12:09:59","78.2","66.3","67.1","29.85","316","2.7","10.8","0.03","0.00"
"12:14:57","78.6","64.7","62.6","29.85","272","3.4","10.8","0.03","0.00"
"12:19:59","78.9","65.5","63.7","29.85","280","4.3","12","0.03","0.00"
"12:24:56","79","64.2","60.5","29.85","273","4","13.2","0.03","0.00"
"12:29:59","79.5","64.8","60.7","29.85","277","2.7","12","0.03","0.00"
"12:34:57","78.8","63.6","59.5","29.84","332","4.4","13.2","0.03","0.00"
"12:39:56","78.9","65.5","63.7","29.84","305","3.2","8.4","0.03","0.00"
"12:44:57","78.3","64.9","63.4","29.84","264","2.2","4.8","0.03","0.00"
"12:49:58","77.7","65.4","65.7","29.84","236","4.3","13.2","0.03","0.00"
"12:54:56","78.8","66.9","67.1","29.84","223","3.5","8.4","0.03","0.00"
"12:59:58","79.2","66.3","64.7","29.84","249","3.6","7.2","0.03","0.00"
"13:04:58","79.5","65.3","62","29.84","230","4","8.4","0.03","0.00"
"13:09:58","79.9","64.9","60.5","29.84","288","3.6","8.4","0.03","0.00"
"13:14:58","79.6","64.2","59.6","29.84","255","2.9","8.1","0.03","0.00"
"13:19:56","80.3","65.8","61.5","29.83","231","4.1","8.4","0.03","0.00"
"13:24:59","80.8","65","58.8","29.83","313","5.2","12","0.03","0.00"
"13:29:59","80.1","63.2","56.4","29.83","344","5.4","14.4","0.03","0.00"
"13:34:58","80","64.2","58.6","29.83","310","4.4","8.4","0.03","0.00"
"13:39:57","80.9","64.2","56.9","29.83","296","5.1","15.6","0.03","0.00"
"13:44:56","80.7","63.6","56.1","29.83","305","3.9","16.1","0.03","0.00"
"13:49:58","81","64.5","57.4","29.83","334","5.5","16.1","0.03","0.00"
"13:54:57","81.3","66.1","60.2","29.83","276","2.2","13.2","0.03","0.00"
"13:59:59","80.8","63.4","55.5","29.83","345","5","12.7","0.03","0.00"
"14:04:59","80","63.3","56.8","29.83","19","1.8","6.9","0.03","0.00"
"14:09:59","79.8","62.8","56.1","29.83","342","2.8","8.4","0.03","0.00"
"14:14:58","79.4","62.6","56.6","29.83","254","2.9","9.6","0.03","0.00"
"14:19:56","80.2","64.4","58.6","29.82","239","3.8","8.4","0.03","0.00"
"14:24:59","80.7","63.7","56.2","29.82","272","2.8","7.2","0.03","0.00"
"14:29:57","80.1","63.1","56.2","29.82","271","2.8","6.9","0.03","0.00"
"14:34:56","79.9","63.9","58.2","29.82","312","4","12","0.03","0.00"
"14:39:59","81","64.7","57.7","29.82","341","4","12","0.03","0.00"
"14:44:58","81.8","63.7","54.4","29.82","312","3.6","10.8","0.03","0.00"
"14:49:56","81.8","64.8","56.5","29.81","324","3.7","12","0.03","0.00"
"14:54:58","82.4","64.5","54.9","29.81","247","3.2","10.8","0.03","0.00"
"14:59:57","82.1","63.1","52.8","29.81","292","3.2","8.1","0.03","0.00"
"15:04:57","82.1","64.6","55.5","29.81","277","2.8","12","0.03","0.00"
"15:09:57","82.7","63.5","52.4","29.81","337","2.7","6","0.03","0.00"
"15:14:56","82.8","63.6","52.4","29.81","336","4.9","12","0.03","0.00"
"15:19:58","82.9","63.3","51.8","29.80","284","3.7","10.4","0.03","0.00"
"15:24:57","82.5","63.7","53.1","29.80","223","3.6","8.1","0.03","0.00"
"15:29:59","82.4","64.2","54.4","29.80","358","4","10.8","0.03","0.00"
"15:34:57","82.6","62.7","51.3","29.80","326","5.4","12","0.03","0.00"
"15:39:56","82.9","63.8","52.6","29.80","319","3.6","10.4","0.03","0.00"
"15:44:59","83.3","64","52.5","29.80","305","2.1","7.2","0.03","0.00"
"15:49:57","83.5","64.1","52.2","29.80","311","3.9","13.2","0.03","0.00"
"15:54:56","83.3","63.2","50.9","29.80","331","4.4","10.8","0.03","0.00"
"15:59:58","83","63.2","51.4","29.80","315","3.6","8.4","0.03","0.00"
"16:04:58","83.3","63","50.5","29.80","279","3.2","6","0.03","0.00"
"16:09:58","83.5","63.9","51.8","29.80","296","2.9","6","0.03","0.00"
"16:14:57","83.8","64","51.6","29.80","243","2.9","6","0.03","0.00"
"16:19:59","84.1","63.7","50.4","29.79","311","3.5","8.4","0.03","0.00"
"16:24:58","84.2","63.7","50.4","29.79","317","2.6","8.1","0.03","0.00"
"16:29:56","83.9","63","49.4","29.79","266","2.9","6","0.03","0.00"
"16:34:59","83.7","63.7","51.1","29.79","261","2.5","10.8","0.03","0.00"
"16:39:58","83.9","63.6","50.7","29.79","330","2.7","10.8","0.03","0.00"
"16:44:56","83.9","62.5","48.6","29.79","264","3.8","8.4","0.03","0.00"
"16:49:59","84","63.3","49.8","29.79","245","2.7","7.2","0.03","0.00"
"16:54:57","84.4","63.6","49.9","29.79","335","2.5","4.8","0.03","0.00"
"16:59:56","84.7","63.8","49.6","29.80","298","2.7","7.2","0.03","0.00"
"17:04:56","84.8","62.2","47","29.80","326","3.2","7.2","0.03","0.00"
"17:09:56","84.7","63.6","49.3","29.80","264","3","8.4","0.03","0.00"
"17:14:56","84.6","63.4","49.3","29.80","347","3.5","13.2","0.03","0.00"
"17:19:58","84.5","61.9","46.7","29.79","321","3.2","7.2","0.03","0.00"
"17:24:59","84.3","62.4","47.8","29.79","321","2.8","12","0.03","0.00"
"17:29:59","84.1","62.3","48","29.79","340","2.6","11.5","0.03","0.00"
"17:34:58","84.1","61.3","46.3","29.79","329","3","7.2","0.03","0.00"
"17:39:58","84.2","60.9","45.6","29.79","313","2.5","4.8","0.03","0.00"
"17:44:57","84.1","61.3","46.4","29.79","333","2.9","7.2","0.03","0.00"
"17:49:56","83.8","60.5","45.5","29.79","326","3.4","8.4","0.03","0.00"
"17:54:59","83.3","61.1","47.2","29.79","356","2","8.4","0.03","0.00"
"17:59:58","83.1","61.3","47.8","29.80","357","3.3","8.4","0.03","0.00"
"18:04:59","82.7","60.8","47.7","29.80","345","3","8.4","0.03","0.00"
"18:09:59","82.4","60.3","47.3","29.80","340","2.8","10.8","0.03","0.00"
"18:14:59","81.9","60.2","47.8","29.80","322","1.9","8.4","0.03","0.00"
"18:19:58","81.5","60.1","48.3","29.80","318","2.3","8.1","0.03","0.00"
"18:24:57","81.1","60.3","49.3","29.80","335","1.3","6","0.03","0.00"
"18:29:56","80.6","59.9","49.4","29.80","349","3.3","8.4","0.03","0.00"
"18:34:56","80.1","60.2","50.9","29.80","350","1.5","8.1","0.03","0.00"
"18:39:56","79.6","59.7","50.7","29.80","334","2.5","10.8","0.03","0.00"
"18:44:56","79.4","59.8","51.3","29.80","321","1.3","4.8","0.03","0.00"
"18:49:59","79","59.1","50.6","29.80","321","1.5","7.2","0.03","0.00"
"18:54:59","78.8","59.2","51","29.80","335","1.9","7.2","0.03","0.00"
"18:59:56","78.6","58.8","50.6","29.80","329","1.8","6.9","0.03","0.00"
"19:04:59","78.4","58","49.6","29.80","346","1.9","6","0.03","0.00"
"19:09:57","78.3","57.5","49","29.80","349","1.4","4.8","0.03","0.00"
"19:14:56","78.1","57.3","48.8","29.80","346","1","3.6","0.03","0.00"
"19:19:58","77.9","57.3","49.1","29.80","353","1.1","6","0.03","0.00"
"19:24:59","77.7","57.1","49.2","29.80","353","0.7","5.8","0.03","0.00"
"19:29:57","77.5","57.1","49.4","29.81","338","1.6","7.2","0.03","0.00"
"19:34:59","77.3","57.2","50","29.81","335","0.3","2.4","0.03","0.00"
"19:39:57","77.1","57.7","51.3","29.81","335","0.1","1.2","0.03","0.00"
"19:44:59","76.8","57.5","51.5","29.82","335","0.1","2.4","0.03","0.00"
"19:49:57","76.3","57.7","52.7","29.82","335","0.3","2.4","0.03","0.00"
"19:54:56","75.8","58","54","29.82","335","0.5","3.6","0.03","0.00"
"19:59:58","75.2","57.6","54.4","29.82","335","0","1.2","0.03","0.00"
"20:04:57","74.7","57.8","55.6","29.82","335","0","0","0.03","0.00"
"20:09:59","74.2","58","57","29.82","335","0.2","2.4","0.03","0.00"
"20:14:58","73.6","58.1","58.4","29.82","335","0.9","2.4","0.03","0.00"
"20:19:57","73.2","57.8","58.7","29.82","325","0.1","1.2","0.03","0.00"
"20:24:59","72.8","57.8","59.3","29.82","263","0","0","0.03","0.00"
"20:29:57","72.5","58.4","61.3","29.83","263","0","1.2","0.03","0.00"
"20:34:56","72.2","58.3","61.8","29.83","263","0","0","0.03","0.00"
"20:39:59","71.8","58.3","62.5","29.83","263","0","0","0.03","0.00"
"20:44:57","71.4","58.8","64.6","29.83","263","0.2","1.2","0.03","0.00"
"20:49:59","70.9","58.8","65.7","29.83","263","0.1","1.2","0.03","0.00"
"20:54:57","70.4","58.7","66.3","29.83","263","0.6","2.4","0.03","0.00"
"20:59:59","70","58.8","67.6","29.83","263","1","2.4","0.03","0.00"
"21:04:58","69.5","58.5","68","29.83","263","0.9","2.3","0.03","0.00"
"21:09:56","69.2","58.2","68","29.83","263","0.4","1.2","0.03","0.00"
"21:14:59","69.1","58.3","68.6","29.84","263","0","0","0.03","0.00"
"21:19:57","68.9","58.4","69.3","29.84","263","0","0","0.03","0.00"
"21:24:59","68.6","58.2","69.4","29.84","263","0","0","0.03","0.00"
"21:29:57","68.4","59","71.8","29.85","261","0.1","1.2","0.03","0.00"
"21:34:59","67.9","58.7","72.5","29.85","261","0","1.2","0.03","0.00"
"21:39:58","67.3","58.7","74","29.85","261","0","0","0.03","0.00"
"21:44:56","66.8","58.1","73.8","29.85","261","0","1.2","0.03","0.00"
"21:49:58","66.7","58.2","74.2","29.85","261","0","0","0.03","0.00"
"21:54:56","66.9","58.2","73.5","29.85","261","1.4","3.6","0.03","0.00"
"21:59:58","67.5","58","71.5","29.85","262","0.7","2.4","0.03","0.00"
"22:04:57","68","58.2","71","29.85","262","0.4","2.4","0.03","0.00"
"22:09:59","68.3","58.3","70.5","29.85","264","0.5","2.4","0.03","0.00"
"22:14:58","68.3","59","72.1","29.86","265","0.1","1.2","0.03","0.00"
"22:19:56","67.8","59.2","73.9","29.86","265","0.7","2.4","0.03","0.00"
"22:24:58","66.9","58.6","74.7","29.86","265","0.9","2.4","0.03","0.00"
"22:29:56","66.3","58.2","75.3","29.86","265","0","1.2","0.03","0.00"
"22:34:59","66","57.9","75.4","29.86","265","0","0","0.03","0.00"
"22:39:57","65.8","58","76","29.86","265","0","0","0.03","0.00"
"22:44:56","65.7","58.3","77","29.86","265","0","0","0.03","0.00"
"22:49:57","65.7","58.3","77.1","29.86","265","0","0","0.03","0.00"
"22:54:59","65.7","58.7","78","29.86","265","0","0","0.03","0.00"
"22:59:58","65.6","58.2","77.1","29.86","265","0","0","0.03","0.00"
"23:04:57","65.4","58.4","77.9","29.86","265","0","0","0.03","0.00"
"23:09:59","65.4","59","79.8","29.86","265","0","0","0.03","0.00"
"23:14:57","65.3","58.8","79.5","29.86","265","0","0","0.03","0.00"
"23:19:59","65.5","58.7","78.7","29.86","265","0","0","0.03","0.00"
"23:24:56","65.6","59.1","79.4","29.86","265","0","0","0.03","0.00"
"23:29:59","65.5","59.4","80.8","29.86","265","0","0","0.03","0.00"
"23:34:57","65.3","59.3","81","29.86","265","0","0","0.03","0.00"
"23:39:56","65.1","59.1","81","29.86","265","0","0","0.03","0.00"
"23:44:58","65","59","81","29.87","265","0","0","0.03","0.00"
"23:49:56","64.9","58.9","81","29.87","265","0","0","0.03","0.00"
